Tri-Cities, TN

3:54 AM EDT on March 24, 2017 (GMT -0400)
Tri-Cities Regional Tennessee / Virginia

Weather History for KTRI - September, 2014

Change the Weather History Date:

Tuesday, September 2, 2014

  Actual Average Record
Temperature  
Mean Temperature 79 °F 72 °F  
Max Temperature 90 °F 83 °F 96 °F (1943)
Min Temperature 67 °F 60 °F 45 °F (1967)
Degree Days  
Heating Degree Days 0 0  
Month to date heating degree days 0 0  
Since 1 July heating degree days 0 1  
Cooling Degree Days 14 7  
Month to date cooling degree days 28 14  
Year to date cooling degree days 985 866  
Growing Degree Days 28 (Base 50)    
Moisture  
Dew Point 66 °F    
Average Humidity 68    
Maximum Humidity 93    
Minimum Humidity 43    
Precipitation  
Precipitation 0.29 in 0.11 in 2.87 in (1978)
Month to date precipitation 0.29 0.22  
Year to date precipitation 25.33 29.67  
Snow  
Snow 0.00 in 0.00 in - ()
Month to date snowfall 0.0 0.0  
Since 1 July snowfall 0.0 0.0  
Since 1 September snowfall 0.0 0.0  
Snow Depth 0.00 in    
Sea Level Pressure  
Sea Level Pressure 30.02 in    
Wind  
Wind Speed 4 mph (West)    
Max Wind Speed 25 mph    
Max Gust Speed 34 mph    
Visibility 9 miles    
Events Rain , Thunderstorm    
T = Trace of Precipitation, MM = Missing Value Source: NWS Daily Summary

Daily Weather History Graph

Daily Weather History Graph

Search for Another Location

Airport or City:

Trip Planner

Search our weather history database for the weather conditions in past years. The results will help you decide how hot, cold, wet, or windy it might be!

Date:

Astronomy

Sep. 02, 2014 Rise Set
Actual Time 7:01 AM EDT 7:56 PM EDT
Civil Twilight 6:35 AM EDT 8:22 PM EDT
Nautical Twilight 6:04 AM EDT 8:53 PM EDT
Astronomical Twilight 5:31 AM EDT 9:25 PM EDT
Moon 2:33 PM EDT (9/2) 12:09 AM EDT (9/2)
Length of Visible Light 13h 47m
Length of Day
12h 54m
First Quarter, 52% of the Moon is Illuminated
Sep 2
First Quarter
Sep 8
Full
Sep 15
Last Quarter
Sep 24
New
Oct 1
First Quarter

Hourly Weather History & Observations

Time (EDT) Temp. Heat Index Dew Point Humidity Pressure Visibility Wind Dir Wind Speed Gust Speed Precip Events Conditions
12:53 AM 70.0 °F - 66.9 °F 90% 30.04 in 10.0 mi Calm Calm - N/A   Scattered Clouds
1:53 AM 70.0 °F - 66.0 °F 87% 30.04 in 10.0 mi NNW 3.5 mph - N/A   Scattered Clouds
2:53 AM 68.0 °F - 64.9 °F 90% 30.02 in 9.0 mi Calm Calm - N/A   Scattered Clouds
3:53 AM 68.0 °F - 64.9 °F 90% 30.04 in 9.0 mi Calm Calm - N/A   Scattered Clouds
4:53 AM 66.9 °F - 64.0 °F 90% 30.04 in 7.0 mi Calm Calm - N/A   Scattered Clouds
5:53 AM 66.9 °F - 64.9 °F 93% 30.03 in 8.0 mi Calm Calm - N/A   Mostly Cloudy
6:53 AM 66.9 °F - 64.9 °F 93% 30.05 in 7.0 mi Calm Calm - N/A   Mostly Cloudy
7:53 AM 70.0 °F - 66.0 °F 87% 30.06 in 8.0 mi Calm Calm - N/A   Mostly Cloudy
8:53 AM 73.0 °F - 66.9 °F 81% 30.07 in 10.0 mi Calm Calm - N/A   Mostly Cloudy
9:53 AM 75.0 °F - 66.9 °F 76% 30.06 in 10.0 mi Calm Calm - N/A   Overcast
10:53 AM 79.0 °F - 66.9 °F 66% 30.07 in 10.0 mi Calm Calm - N/A   Mostly Cloudy
11:53 AM 82.0 °F 85.5 °F 69.1 °F 65% 30.06 in 10.0 mi North - - N/A   Scattered Clouds
12:53 PM 84.9 °F 88.8 °F 69.1 °F 59% 30.04 in 10.0 mi West 9.2 mph - N/A   Partly Cloudy
1:53 PM 87.1 °F 89.9 °F 66.9 °F 51% 30.01 in 10.0 mi SW 6.9 mph - N/A   Partly Cloudy
2:53 PM 87.1 °F 89.2 °F 66.0 °F 49% 29.98 in 10.0 mi WSW 9.2 mph - N/A   Scattered Clouds
3:53 PM 88.0 °F 90.3 °F 66.0 °F 48% 29.94 in 10.0 mi WSW 5.8 mph - N/A   Mostly Cloudy
4:53 PM 89.1 °F 91.0 °F 64.9 °F 45% 29.92 in 10.0 mi WSW 6.9 mph - N/A   Scattered Clouds
5:53 PM 88.0 °F 88.4 °F 62.1 °F 42% 29.91 in 10.0 mi WSW 9.2 mph - N/A   Scattered Clouds
6:53 PM 86.0 °F 86.3 °F 62.1 °F 44% 29.91 in 10.0 mi West 8.1 mph - N/A   Scattered Clouds
7:53 PM 82.9 °F 84.4 °F 64.0 °F 53% 29.93 in 10.0 mi West 5.8 mph - N/A   Scattered Clouds
8:53 PM 82.0 °F 84.1 °F 66.0 °F 58% 29.97 in 10.0 mi West 6.9 mph - N/A   Mostly Cloudy
9:03 PM 82.9 °F 85.0 °F 66.0 °F 56% 30.08 in 10.0 mi NW 18.4 mph 26.5 mph N/A Thunderstorm Thunderstorm
9:21 PM 73.0 °F - 64.0 °F 73% 30.10 in 10.0 mi NW 19.6 mph 33.4 mph 0.00 in Rain , Thunderstorm Light Thunderstorms and Rain
9:53 PM 71.1 °F - 64.0 °F 78% 30.02 in 3.0 mi WNW 13.8 mph 20.7 mph 0.21 in Rain , Thunderstorm Light Thunderstorms and Rain
10:17 PM 70.0 °F - 64.9 °F 84% 30.11 in 10.0 mi WNW 8.1 mph - 0.02 in Rain Light Rain
10:53 PM 69.8 °F - 66.2 °F 88% 30.11 in 10.0 mi SE 4.6 mph - N/A Rain Light Rain
11:53 PM 69.1 °F - 64.9 °F 87% 30.04 in 10.0 mi SSW 3.5 mph - 0.01 in Rain Light Rain